Lexington Weather

Lexington, Massachusetts, USA

70°F
8/17/2022 6:48pm 
  • Lexington Conditions: Overcast
  • Temperature: 69.8°F / 21.0°CColder 0.4°F than last hour.
  • Dew Point: 57.6°FDecreased 1.6°Fsince last hour.
  • Relative Humidity: 65%Decreased 3.0% since last hour.
  • Wind: Calm, 10-min avg: Calm, gust: 2 mph
  • Barometer: 29.85 in Steady
  • Visibility: 10 miles
  • Rain Today: 0.00 in
  •   

Regional Weather Roundup
for Boston, MA

        
000
ASUS41 KBOX 121710
RWRBOX

REGIONAL WEATHER ROUNDUP
NATIONAL WEATHER SERVICE BOSTON/NORTON MA
100 PM EDT FRI AUG 12 2022

NOTE:  "FAIR" INDICATES FEW OR NO CLOUDS BELOW 12,000 FEET WITH NO 
SIGNIFICANT WEATHER AND/OR OBSTRUCTIONS TO VISIBILITY.

MAZALL-121800-
EASTERN MASSACHUSETTS
  
CITY           SKY/WX    TMP DP  RH WIND       PRES   REMARKS
BOSTON         MOSUNNY   76  58  53 SE13      29.96S                  
BEVERLY        SUNNY     81  50  33 VRB3      29.94F                  
LAWRENCE       SUNNY     80  48  32 NW9       29.98F                  
BEDFORD        SUNNY     79  50  36 CALM      29.95F                  
BLUE HILL      NOT AVBL                                               
NORWOOD        SUNNY     83  52  34 VRB7      29.95S                  
MARSHFIELD     SUNNY     73  59  60 NE10      29.96S                  
PLYMOUTH       SUNNY     76  60  57 E10       29.96S                  
TAUNTON          N/A    N/A N/A N/A MISG      29.94F                  
NEW BEDFORD    PTSUNNY   80  60  50 N7        29.94F                  
$$

MAZALL-121800-
CAPE COD AND THE ISLANDS
  
CITY           SKY/WX    TMP DP  RH WIND       PRES   REMARKS
FALMOUTH       SUNNY     73  61  64 NE12G18   29.96S                  
HYANNIS        PTSUNNY   73  62  68 N13       29.94F                  
CHATHAM        CLOUDY    73  65  75 MISG      29.95F                  
NANTUCKET      CLOUDY    74  69  85 N12       29.95S                  
MARTHAS VNYRD  MOSUNNY   75  65  70 NE7       29.95S                  
$$
 
MAZALL-121800-
CENTRAL AND WESTERN MASSACHUSETTS
  
CITY           SKY/WX    TMP DP  RH WIND       PRES   REMARKS
WORCESTER      SUNNY     75  49  39 N6        30.00F                  
FITCHBURG      SUNNY     79  44  28 NW8       29.98F                  
ORANGE         SUNNY     76  45  33 N13G21    30.01F                  
SPRINGFIELD    MOSUNNY   78  47  32 NE9       29.96F                  
WESTFIELD      SUNNY     80  47  31 NW7       29.98F                  
NORTH ADAMS    SUNNY     71  50  47 NW8       30.04F                  
PITTSFIELD     SUNNY     73  44  35 NW14G21   30.03F                  
$$
 
RIZALL-121800-
RHODE ISLAND
  
CITY           SKY/WX    TMP DP  RH WIND       PRES   REMARKS
PROVIDENCE     PTSUNNY   83  53  35 VRB5G16   29.95F                  
NEWPORT        SUNNY     78  60  53 VRB5      29.96S                  
BLOCK ISLAND   SUNNY     75  61  61 VRB5      29.98R                  
SMITHFIELD     SUNNY     81  53  37 NW8       29.97F                  
WESTERLY       SUNNY     82  55  39 VRB5      29.96S                  
$$
 
CTZALL-121800-
CONNECTICUT
  
CITY           SKY/WX    TMP DP  RH WIND       PRES   REMARKS
BRADLEY INTL   MOSUNNY   80  47  31 N12G18    29.99S                  
HARTFORD       MOSUNNY   81  46  29 N9        29.98F                  
BRIDGEPORT     SUNNY     81  48  31 N12       29.98F                  
DANBURY        SUNNY     80  48  32 N12       30.02F                  
GROTON         SUNNY     83  53  35 VRB3      29.95F                  
NEW HAVEN      SUNNY     83  52  34 NE6       29.98F                  
CHESTER        FAIR      79  48  34 NW8G17    29.99S                  
MERIDEN        SUNNY     81  47  30 N12       29.98F                  
WILLIMANTIC    SUNNY     79  49  34 N13       29.98F                  
OXFORD         SUNNY     76  49  38 NW13      30.02F                  
$$

MEZ002-015-021-024-NHZ003-005-008-011-012-014-VTZ005-008-121800-
NORTHERN NEW ENGLAND
  
CITY           SKY/WX    TMP DP  RH WIND       PRES   REMARKS
PORTLAND ME    MOSUNNY   78  52  40 W6        29.95F                  
BANGOR ME      PTSUNNY   73  60  63 N6        29.96S                  
CONCORD NH     MOSUNNY   75  51  43 NW13G23   29.99S                  
MANCHESTER NH  MOSUNNY   78  51  38 VRB7G21   29.97S                  
NASHUA NH      MOSUNNY   76  51  41 NW10G20   29.98F                  
PORTSMOUTH NH  MOSUNNY   79  49  34 W7        29.95S                  
JAFFREY NH     MOSUNNY   75  50  41 VRB6      30.02F                  
KEENE NH       MOSUNNY   72  51  47 N7          N/A                   
BURLINGTON VT  PTSUNNY   69  51  52 N12       30.06S                  
MT. WASHINGTON FOG       46  46 100 W2          N/A  VSB 1/8          
$$

NYZ052-076-121800-
EASTERN NEW YORK
  
CITY           SKY/WX    TMP DP  RH WIND       PRES   REMARKS
ALBANY         MOSUNNY   76  46  34 NW13      30.04F                  
NEW YORK CITY  MOSUNNY   80  49  33 N10G18    29.99F                  
$$
 
ANZALL-121800-
MARINE OBSERVATIONS
  
STATION/POSITION TIME  TEMP    WIND        PRES    VSBY  WAVE
                       AIR SEA DIR/SP/G                  HT/PER
                 (UTC) (F)     (DEG/KT/KT) (MB)    (MI)  (FT/S)
BOSTON BUOY      NOT AVBL
BUZZARDS BAY     NOT AVBL
NANTUCKET SOUND  NOT AVBL
MASS BAY-STELLWA NOT AVBL
ISLE OF SHOALS   NOT AVBL
S OF BLOCK IS    NOT AVBL
$$

......................KEY.........................
  SKY/WX - SKY CONDITION/PRESENT WEATHER
  TMP    - TEMPERATURE IN FAHRENHEIT
  DWPT   - DEWPOINT IN FAHRENHEIT
  RH     - RELATIVE HUMIDITY IN PERCENT
  WIND   - DIRECTION AND SPEED IN MPH
  PRES   - MEAN SEA LEVEL PRESSURE IN INCHES OF HG
  WCI    - WIND CHILL INDEX
  VSB    - VISIBILITY IN MILES
  HX     - HEAT INDEX
  TC     - TEMPERATURE IN CELSIUS
  VRB    - VARIABLE WIND DIRECTION
  N/A    - NOT AVAILABLE
  
      

Other recent Regional Weather Roundups

Wed Aug 17, 6:10pm

Wed Aug 17, 5:10pm

Wed Aug 17, 4:10pm

Wed Aug 17, 3:10pm

Wed Aug 17, 2:10pm

Wed Aug 17, 1:10pm

Wed Aug 17, 12:10pm

Wed Aug 17, 11:10am

Wed Aug 17, 10:10am

Wed Aug 17, 9:10am

Wed Aug 17, 8:10am

Wed Aug 17, 7:10am

Wed Aug 17, 6:10am

Wed Aug 17, 5:10am

Wed Aug 17, 4:10am

Wed Aug 17, 3:10am

Wed Aug 17, 2:10am

Wed Aug 17, 1:10am

Wed Aug 17, 12:10am

Tue Aug 16, 11:10pm

Tue Aug 16, 10:10pm

Tue Aug 16, 9:10pm

Tue Aug 16, 8:10pm

Tue Aug 16, 7:10pm

Tue Aug 16, 6:10pm

Tue Aug 16, 5:10pm

Tue Aug 16, 4:10pm

Tue Aug 16, 3:10pm

Tue Aug 16, 2:10pm

Tue Aug 16, 1:10pm

Tue Aug 16, 12:10pm

Tue Aug 16, 11:10am

Tue Aug 16, 10:10am

Tue Aug 16, 9:10am

Tue Aug 16, 8:10am

Tue Aug 16, 7:10am

Tue Aug 16, 6:10am

Tue Aug 16, 5:10am

Tue Aug 16, 4:10am

Tue Aug 16, 3:10am

Tue Aug 16, 2:10am

Tue Aug 16, 1:10am

Tue Aug 16, 12:10am

Mon Aug 15, 11:10pm

Mon Aug 15, 10:10pm

Mon Aug 15, 9:10pm

Mon Aug 15, 8:10pm

Mon Aug 15, 7:10pm

Mon Aug 15, 6:10pm

Mon Aug 15, 5:10pm

Mon Aug 15, 4:10pm

Mon Aug 15, 3:10pm

Mon Aug 15, 2:10pm

Mon Aug 15, 1:10pm

Mon Aug 15, 12:10pm

Mon Aug 15, 11:10am

Mon Aug 15, 10:10am

Mon Aug 15, 9:10am

Mon Aug 15, 8:10am

Mon Aug 15, 7:10am

Mon Aug 15, 6:10am

Mon Aug 15, 5:10am

Mon Aug 15, 4:10am

Mon Aug 15, 3:10am

Mon Aug 15, 2:10am

Mon Aug 15, 1:10am

Mon Aug 15, 12:10am

Sun Aug 14, 11:10pm

Sun Aug 14, 10:10pm

Sun Aug 14, 9:10pm

Sun Aug 14, 8:10pm

Sun Aug 14, 7:10pm

Sun Aug 14, 6:10pm

Sun Aug 14, 5:10pm

Sun Aug 14, 4:10pm

Sun Aug 14, 3:10pm

Sun Aug 14, 2:10pm

Sun Aug 14, 1:10pm

Sun Aug 14, 12:10pm

Sun Aug 14, 11:10am

Sun Aug 14, 10:10am

Sun Aug 14, 9:10am

Sun Aug 14, 8:10am

Sun Aug 14, 7:10am

Sun Aug 14, 6:10am

Sun Aug 14, 5:10am

Sun Aug 14, 4:10am

Sun Aug 14, 3:10am

Sun Aug 14, 2:10am

Sun Aug 14, 1:10am

Sun Aug 14, 12:10am

Sat Aug 13, 11:10pm

Sat Aug 13, 10:10pm

Sat Aug 13, 9:10pm

Sat Aug 13, 8:10pm

Sat Aug 13, 7:10pm

Sat Aug 13, 6:10pm

Sat Aug 13, 5:10pm

Sat Aug 13, 4:10pm

Sat Aug 13, 3:10pm

Sat Aug 13, 2:10pm

Sat Aug 13, 1:10pm

Sat Aug 13, 12:10pm

Sat Aug 13, 11:10am

Sat Aug 13, 10:10am

Sat Aug 13, 9:10am

Sat Aug 13, 8:10am

Sat Aug 13, 7:10am

Sat Aug 13, 6:10am

Sat Aug 13, 5:10am

Sat Aug 13, 4:10am

Sat Aug 13, 3:10am

Sat Aug 13, 2:10am

Sat Aug 13, 1:10am

Sat Aug 13, 12:10am

Fri Aug 12, 11:10pm

Fri Aug 12, 10:10pm

Fri Aug 12, 9:10pm

Fri Aug 12, 8:10pm

Fri Aug 12, 7:10pm

Fri Aug 12, 6:10pm

Fri Aug 12, 5:10pm

Fri Aug 12, 4:10pm

Fri Aug 12, 3:10pm

Fri Aug 12, 2:10pm

Fri Aug 12, 12:10pm

Fri Aug 12, 11:10am

Fri Aug 12, 10:10am

Fri Aug 12, 9:10am

Fri Aug 12, 8:10am

Fri Aug 12, 7:10am

Fri Aug 12, 6:10am

Fri Aug 12, 5:10am

Fri Aug 12, 4:10am

Fri Aug 12, 3:10am

Fri Aug 12, 2:10am

Fri Aug 12, 1:10am

Fri Aug 12, 12:10am

Thu Aug 11, 11:10pm

Thu Aug 11, 10:10pm

Thu Aug 11, 9:10pm

Thu Aug 11, 8:10pm

Thu Aug 11, 7:10pm

Thu Aug 11, 6:10pm

Thu Aug 11, 5:10pm

Thu Aug 11, 4:10pm

Thu Aug 11, 3:10pm

Thu Aug 11, 2:10pm

Thu Aug 11, 1:10pm

Thu Aug 11, 12:10pm

Thu Aug 11, 11:10am

Thu Aug 11, 10:10am

Thu Aug 11, 9:10am

Thu Aug 11, 8:10am

Thu Aug 11, 7:10am

Thu Aug 11, 6:10am

Thu Aug 11, 5:10am

Thu Aug 11, 4:10am

Thu Aug 11, 3:10am

Thu Aug 11, 2:10am

Thu Aug 11, 1:10am

Thu Aug 11, 12:10am

Wed Aug 10, 11:10pm

Wed Aug 10, 10:10pm

Wed Aug 10, 9:10pm

Wed Aug 10, 8:10pm

Wed Aug 10, 7:10pm

Meta data:

ID: d17314e6-5981-4bf2-b8f8-b7dc5383e685
Link: https://api.weather.gov/products/d17314e6-5981-4bf2-b8f8-b7dc5383e685